Amateur Radio Satellites - All Passes

Search period start: 18 May 2013 23:35
Search period end: 19 May 2013 23:35
Location: Washington, 38.8950°N, 77.0370°W

Satellite Date Start Highest point End Downlink Frequencies (MHz)
Time Altitude Azimuth
RS-15 19 May 00:34:13 00:43:28 28° 32° (NNE) 00:52:25 29.354 - 29.394 USB, Beacon 29.352 USB
KITSAT 1 19 May 00:50:27 00:58:27 67° 302° (WNW) 01:06:32 435.175 FM
MaSat-1 19 May 01:26:45 01:30:15 14° 101° (E) 01:33:32 437.345 MHz
Oscar 16 19 May 01:49:46 01:53:12 18° 92° (E) 01:56:37 437.025 USB, Beacon 2401.1428
AO-27 19 May 01:49:51 01:51:55 12° 90° (E) 01:53:58 436.795 MHz FM
Oscar 10/S400 19 May 01:53:07 06:24:25 27° 83° (E) 08:32:04 145.825 - 145.975 CW/USB, Beacon 145.810 USB
ITAMSAT 1 19 May 01:56:58 01:59:45 14° 91° (E) 02:02:32 435.822 SSB
Uribyol 2 19 May 02:37:24 02:42:17 38° 98° (E) 02:47:07 436.500 FM
RS-15 19 May 02:46:32 02:57:43 84° 59° (ENE) 03:08:36 29.354 - 29.394 USB, Beacon 29.352 USB
Oscar 19 19 May 02:49:10 02:54:17 58° 101° (E) 02:59:20 437.125 CW, 437.150 USB
KITSAT 1 19 May 02:50:18 02:55:31 18° 326° (NW) 03:00:47 435.175 FM
MaSat-1 19 May 03:04:36 03:11:59 84° 113° (ESE) 03:18:10 437.345 MHz
Uosat F 19 May 03:17:51 03:19:29 11° 90° (E) 03:21:06 435.120 FM
ISS 19 May 03:22:18 03:24:01 14° 129° (SE) 03:25:45 145.800 FM
AO-Echo 19 May 03:26:19 03:30:39 35° 98° (E) 03:35:02 ?
AO-27 19 May 03:26:44 03:31:57 74° 286° (WNW) 03:37:09 436.795 MHz FM
Oscar 16 19 May 03:27:50 03:32:51 51° 288° (WNW) 03:37:50 437.025 USB, Beacon 2401.1428
Gurwin Techsat 1B 19 May 03:29:27 03:31:56 13° 90° (E) 03:34:24 435.225 FM
ITAMSAT 1 19 May 03:34:30 03:39:40 64° 287° (WNW) 03:44:49 435.822 SSB
Uribyol 2 19 May 04:17:20 04:21:33 25° 294° (WNW) 04:25:45 436.500 FM
Oscar 19 19 May 04:29:52 04:33:08 17° 297° (WNW) 04:36:23 437.125 CW, 437.150 USB
TMSAT-1 19 May 04:47:51 04:53:02 52° 100° (E) 04:58:11 436.925 FM
MaSat-1 19 May 04:49:52 04:54:37 19° 307° (NW) 04:58:51 437.345 MHz
Uosat F 19 May 04:53:46 04:58:47 74° 286° (WNW) 05:03:47 435.120 FM
ISS 19 May 04:57:06 05:00:23 59° 324° (NW) 05:03:42 145.800 FM
RS-15 19 May 05:00:52 05:08:34 23° 259° (W) 05:16:14 29.354 - 29.394 USB, Beacon 29.352 USB
AO-Echo 19 May 05:05:36 05:09:16 23° 293° (WNW) 05:12:57 ?
Gurwin Techsat 1B 19 May 05:07:06 05:12:24 70° 286° (WNW) 05:17:40 435.225 FM
AO-7 19 May 05:23:47 05:31:23 37° 98° (E) 05:38:54 29.400 - 29.500 MHz
Saudisat 1A 19 May 06:16:53 06:20:35 25° 112° (ESE) 06:24:20 436.775 MHz
TMSAT-1 19 May 06:28:50 06:32:33 20° 296° (WNW) 06:36:16 436.925 FM
ISS 19 May 06:35:49 06:37:41 14° 343° (NNW) 06:39:33 145.800 FM
STRAND 1 19 May 06:38:39 06:43:44 79° 75° (ENE) 06:48:51 ?
KITSAT 1 19 May 06:51:11 06:55:18 14° 29° (NNE) 06:59:25 435.175 FM
AO-7 19 May 07:16:21 07:24:15 49° 296° (WNW) 07:32:09 29.400 - 29.500 MHz
Hamsat 19 May 07:26:04 07:29:33 23° 95° (E) 07:33:01 145.90 MHz
PCSat 19 May 07:51:09 07:55:44 29° 108° (ESE) 08:00:22 145.825 MHz
Saudisat 1A 19 May 07:55:56 08:00:07 35° 309° (NW) 08:04:22 436.775 MHz
STRAND 1 19 May 08:22:25 08:23:30 11° 270° (W) 08:24:35 ?
Sapphire 19 May 08:23:07 08:28:21 54° 113° (ESE) 08:33:38 437.095 MHz 1200 baud AX-25 AFSK
SO-50 19 May 08:38:38 08:40:00 11° 107° (ESE) 08:41:23 436.795 FM
KITSAT 1 19 May 08:45:04 08:52:56 50° 53° (NE) 09:00:46 435.175 FM
JAS-1B 19 May 08:46:54 08:52:59 57° 100° (E) 08:58:32 435.800 - 435.900 CW/SSB
SO-67 19 May 08:59:22 09:02:57 80° 283° (WNW) 09:06:31 435.3500 MHz FM
Hamsat 19 May 09:01:51 09:05:35 29° 290° (WNW) 09:09:21 145.90 MHz
PCSat 19 May 09:34:01 09:39:01 37° 305° (NW) 09:44:03 145.825 MHz
HO-68 19 May 09:45:27 09:51:32 29° 96° (E) 09:57:35 435.675 MHz FM
ISS 19 May 09:50:54 09:53:24 19° 23° (NNE) 09:55:54 145.800 FM
Sapphire 19 May 10:07:55 10:12:07 23° 311° (NW) 10:16:20 437.095 MHz 1200 baud AX-25 AFSK
SO-50 19 May 10:15:11 10:20:00 78° 302° (WNW) 10:24:46 436.795 FM
JAS-2 19 May 10:34:02 10:40:54 51° 98° (E) 10:46:55 435.800 - 435.900 CW/SSB, 435.910 FM
JAS-1B 19 May 10:38:51 10:43:01 19° 301° (WNW) 10:46:56 435.800 - 435.900 CW/SSB
KITSAT 1 19 May 10:40:52 10:48:05 37° 252° (WSW) 10:55:18 435.175 FM
Oscar 11 19 May 10:49:15 10:53:35 59° 101° (E) 10:57:53 145.825 FM, Beacon 2401.500 USB
ISS 19 May 11:27:04 11:30:26 71° 221° (SW) 11:33:47 145.800 FM
HO-68 19 May 11:32:35 11:39:26 51° 293° (WNW) 11:46:16 435.675 MHz FM
OPAL 19 May 11:43:43 11:48:47 90° 285° (WNW) 11:53:44 ?
MaSat-1 19 May 11:53:28 11:55:45 16° 51° (NE) 11:57:46 437.345 MHz
SO-50 19 May 11:59:27 12:01:23 12° 320° (NW) 12:03:19 436.795 FM
UOSAT-12 19 May 12:00:42 12:04:21 25° 112° (ESE) 12:08:02 437.025 FM, 437.400 FM
JAS-2 19 May 12:19:40 12:25:27 28° 298° (WNW) 12:30:44 435.800 - 435.900 CW/SSB, 435.910 FM
Oscar 11 19 May 12:27:29 12:29:17 12° 296° (WNW) 12:31:06 145.825 FM, Beacon 2401.500 USB
Oscar 16 19 May 13:05:32 13:09:37 24° 66° (ENE) 13:13:43 437.025 USB, Beacon 2401.1428
AO-27 19 May 13:06:30 13:09:55 18° 63° (ENE) 13:13:20 436.795 MHz FM
ITAMSAT 1 19 May 13:13:44 13:17:28 21° 64° (ENE) 13:21:12 435.822 SSB
OPAL 19 May 13:25:37 13:26:53 11° 303° (WNW) 13:28:08 ?
MaSat-1 19 May 13:35:33 13:37:43 17° 257° (WSW) 13:39:39 437.345 MHz
UOSAT-12 19 May 13:40:14 13:44:21 34° 309° (NW) 13:48:31 437.025 FM, 437.400 FM
Uribyol 2 19 May 13:54:10 13:59:09 51° 72° (ENE) 14:04:10 436.500 FM
Oscar 19 19 May 14:04:47 14:09:57 73° 75° (ENE) 14:15:09 437.125 CW, 437.150 USB
PANSAT 19 May 14:24:10 14:26:31 16° 172° (S) 14:28:52 not established
Uosat F 19 May 14:29:45 14:32:38 16° 63° (ENE) 14:35:32 435.120 FM
AO-Echo 19 May 14:38:16 14:42:51 41° 71° (ENE) 14:47:21 ?
Oscar 16 19 May 14:43:52 14:48:43 40° 262° (W) 14:53:37 437.025 USB, Beacon 2401.1428
AO-27 19 May 14:43:56 14:48:59 55° 259° (W) 14:54:05 436.795 MHz FM
Saudisat 1A 19 May 14:45:27 14:48:32 18° 44° (NE) 14:51:34 436.775 MHz
Gurwin Techsat 1B 19 May 14:49:02 14:52:48 20° 64° (ENE) 14:56:34 435.225 FM
ITAMSAT 1 19 May 14:51:39 14:56:36 47° 260° (W) 15:01:37 435.822 SSB
RS-15 19 May 15:04:39 15:08:14 12° 95° (E) 15:11:47 29.354 - 29.394 USB, Beacon 29.352 USB
Uribyol 2 19 May 15:35:28 15:38:55 18° 267° (W) 15:42:23 436.500 FM
Oscar 19 19 May 15:47:47 15:49:49 12° 270° (W) 15:51:50 437.125 CW, 437.150 USB
PANSAT 19 May 16:03:41 16:06:15 17° 185° (S) 16:08:48 not established
Uosat F 19 May 16:06:00 16:10:56 61° 259° (WSW) 16:15:53 435.120 FM
TMSAT-1 19 May 16:07:26 16:12:41 71° 74° (ENE) 16:17:58 436.925 FM
AO-Echo 19 May 16:18:13 16:21:47 20° 266° (W) 16:25:18 ?
AO-7 19 May 16:21:24 16:29:07 45° 63° (ENE) 16:36:52 29.400 - 29.500 MHz
Saudisat 1A 19 May 16:24:09 16:28:37 59° 242° (WSW) 16:32:59 436.775 MHz
Gurwin Techsat 1B 19 May 16:27:14 16:32:22 51° 260° (W) 16:37:33 435.225 FM
PCSat 19 May 16:40:15 16:44:18 21° 48° (NE) 16:48:21 145.825 MHz
RS-15 19 May 17:06:29 17:18:21 65° 114° (ESE) 17:29:45 29.354 - 29.394 USB, Beacon 29.352 USB
Sapphire 19 May 17:12:30 17:17:27 34° 54° (NE) 17:22:21 437.095 MHz 1200 baud AX-25 AFSK
JAS-1B 19 May 17:45:47 17:47:15 11° 52° (NE) 17:48:40 435.800 - 435.900 CW/SSB
TMSAT-1 19 May 17:50:43 17:53:07 13° 270° (W) 17:55:31 436.925 FM
AO-7 19 May 18:14:20 18:21:54 39° 261° (W) 18:29:35 29.400 - 29.500 MHz
Hamsat 19 May 18:20:18 18:22:41 15° 66° (ENE) 18:25:04 145.90 MHz
PCSat 19 May 18:22:48 18:28:09 60° 246° (WSW) 18:33:27 145.825 MHz
SO-50 19 May 18:48:43 18:53:15 66° 57° (ENE) 18:57:41 436.795 FM
STRAND 1 19 May 18:51:06 18:55:34 29° 96° (E) 19:00:00 ?
Sapphire 19 May 18:56:01 19:00:48 32° 251° (WSW) 19:05:33 437.095 MHz 1200 baud AX-25 AFSK
RS-15 19 May 19:20:19 19:31:24 42° 316° (NW) 19:42:06 29.354 - 29.394 USB, Beacon 29.352 USB
JAS-1B 19 May 19:27:14 19:36:18 53° 70° (ENE) 19:44:10 435.800 - 435.900 CW/SSB
SO-67 19 May 19:34:19 19:37:26 29° 72° (ENE) 19:40:33 435.3500 MHz FM
Hamsat 19 May 19:54:22 19:58:22 44° 261° (W) 20:02:25 145.90 MHz
HO-68 19 May 20:14:10 20:19:08 21° 58° (ENE) 20:24:07 435.675 MHz FM
STRAND 1 19 May 20:30:13 20:34:42 31° 292° (WNW) 20:39:11 ?
UOSAT-12 19 May 20:31:23 20:34:38 19° 45° (NE) 20:37:53 437.025 FM, 437.400 FM
SO-50 19 May 20:31:35 20:33:16 12° 253° (WSW) 20:34:56 436.795 FM
JAS-2 19 May 20:44:06 20:50:01 25° 60° (ENE) 20:56:01 435.800 - 435.900 CW/SSB, 435.910 FM
SO-67 19 May 21:08:52 21:10:57 15° 267° (W) 21:13:02 435.3500 MHz FM
JAS-1B 19 May 21:18:18 21:26:50 37° 263° (W) 21:34:27 435.800 - 435.900 CW/SSB
OPAL 19 May 21:20:49 21:24:12 18° 61° (ENE) 21:27:34 ?
RS-15 19 May 21:40:50 21:48:14 18° 349° (NNW) 21:55:27 29.354 - 29.394 USB, Beacon 29.352 USB
Oscar 11 19 May 21:43:30 21:47:31 40° 72° (ENE) 21:51:34 145.825 FM, Beacon 2401.500 USB
HO-68 19 May 21:58:56 22:06:04 76° 255° (WSW) 22:13:14 435.675 MHz FM
UOSAT-12 19 May 22:10:38 22:15:09 56° 243° (WSW) 22:19:38 437.025 FM, 437.400 FM
JAS-2 19 May 22:26:40 22:34:13 73° 258° (WSW) 22:42:08 435.800 - 435.900 CW/SSB, 435.910 FM
OPAL 19 May 22:57:29 23:02:37 59° 257° (WSW) 23:07:44 ?
KITSAT 1 19 May 23:12:15 23:19:31 39° 109° (ESE) 23:26:50 435.175 FM
Oscar 11 19 May 23:21:12 23:23:55 16° 267° (W) 23:26:39 145.825 FM, Beacon 2401.500 USB

Developed and maintained by Chris Peat, Heavens-Above GmbH. Please read the updated FAQ before sending e-mail. Imprint. DLR
